Flag for U.S.A. Weather past 2 weeks in Omaha, Nebraska, U.S.A.

48 °F


Feels Like: 48 °F
Forecast: 48 / 75 °F
Wind: No wind

Location: Millard Airport

Current Time: Oct 10, 2015 at 12:34:04 AM

Latest Report: Oct 9, 2015 at 11:55 PM

Visibility: 10 mi

Pressure: 30.22 "Hg

Humidity: 91%

Dew point: 46 °F

Location of OmahaLocation

Historic Weather in Omaha — Graph


Omaha temperature yesterday

Maximum temperature yesterday: 63 °F (at 5:15 PM)
Minimum temperature yesterday: 49 °F (at 11:15 PM)
Average temperature yesterday: 55 °F

Past Weeks' High & Low Weather Summary

High87 °F (Sep 28, 3:35 PM)96% (Sep 26, 3:15 AM)30.37 "Hg (Sep 26, 3:15 AM)
Low46 °F (Oct 3, 6:55 AM)30% (Sep 29, 4:55 PM)29.86 "Hg (Sep 28, 3:35 PM)
Average62 °F70%30.15 "Hg
* Reported Sep 24 11:15 PM — Oct 9 11:15 PM, Omaha, Weather by CustomWeather, © 2015

Note: Actual official high and low records may vary slightly from our data, if they occured in-between our weather recording intervals... More about our weather records


Omaha weather history for previous 24 hours

Time TempWeatherWind HumidityBarometerVisibility
11:15 PM
Fri, Oct 9
49 °FClear.No wind91%30.22 "Hg10 mi
10:55 PM49 °FClear.No wind90%30.23 "Hg10 mi
10:35 PM50 °FClear.No wind89%30.23 "Hg10 mi
10:15 PM51 °FClear.No wind85%30.23 "Hg10 mi
9:55 PM52 °FClear.No wind85%30.24 "Hg10 mi
9:15 PM53 °FClear.No wind82%30.25 "Hg10 mi
8:55 PM53 °FClear.No wind81%30.25 "Hg10 mi
8:15 PM54 °FClear.No wind77%30.24 "Hg10 mi
7:55 PM54 °FClear.No wind77%30.24 "Hg10 mi
7:15 PM56 °FSunny.No wind70%30.24 "Hg10 mi
6:55 PM58 °FSunny.No wind63%30.23 "Hg10 mi
6:40 PM59 °FSunny.3 mph63%30.23 "Hg10 mi
6:15 PM61 °FSunny.3 mph58%30.24 "Hg10 mi
5:55 PM62 °FSunny.No wind54%30.24 "Hg10 mi
5:35 PM63 °FSunny.No wind51%30.25 "Hg10 mi
5:15 PM63 °FSunny.No wind53%30.25 "Hg10 mi
4:15 PM62 °FSunny.3 mph51%30.26 "Hg10 mi
3:55 PM62 °FSunny.No wind52%30.27 "Hg10 mi
3:35 PM62 °FSunny.No wind54%30.27 "Hg10 mi
3:15 PM61 °FSunny.No wind54%30.28 "Hg10 mi
2:55 PM60 °FSunny.3 mph55%30.29 "Hg10 mi
2:35 PM60 °FScattered clouds.5 mph57%30.29 "Hg10 mi
2:15 PM59 °FScattered clouds.5 mph57%30.31 "Hg10 mi
1:55 PM59 °FPartly sunny.No wind62%30.31 "Hg10 mi
1:15 PM57 °FOvercast.No wind61%30.33 "Hg10 mi
12:55 PM58 °FOvercast.3 mph61%30.33 "Hg10 mi
12:35 PM56 °FOvercast.No wind62%30.34 "Hg10 mi
12:15 PM56 °FOvercast.No wind66%30.34 "Hg10 mi
11:55 AM55 °FOvercast.No wind65%30.34 "Hg10 mi
11:35 AM55 °FOvercast.No wind66%30.34 "Hg10 mi
11:15 AM54 °FOvercast.6 mph68%30.34 "Hg10 mi
10:55 AM54 °FOvercast.3 mph69%30.35 "Hg10 mi
10:35 AM54 °FOvercast.3 mph68%30.35 "Hg10 mi
10:15 AM54 °FOvercast.No wind69%30.34 "Hg10 mi
9:35 AM54 °FOvercast.No wind70%30.34 "Hg10 mi
9:15 AM54 °FOvercast.3 mph70%30.33 "Hg10 mi
8:55 AM53 °FOvercast.3 mph70%30.33 "Hg10 mi
8:35 AM53 °FOvercast.3 mph71%30.32 "Hg10 mi
8:15 AM53 °FOvercast.3 mph72%30.32 "Hg10 mi
7:55 AM53 °FOvercast.5 mph72%30.32 "Hg10 mi
7:35 AM53 °FOvercast.5 mph74%30.31 "Hg10 mi
7:15 AM53 °FOvercast.No wind76%30.30 "Hg10 mi
6:50 AM53 °FOvercast.5 mph76%30.29 "Hg10 mi
6:35 AM53 °FOvercast.No wind77%30.29 "Hg10 mi
6:15 AM53 °FOvercast.3 mph78%30.28 "Hg10 mi
5:55 AM52 °FOvercast.No wind79%30.27 "Hg10 mi
5:35 AM52 °FOvercast.5 mph80%30.27 "Hg10 mi
5:15 AM52 °FOvercast.7 mph81%30.26 "Hg10 mi
4:55 AM52 °FOvercast.3 mph80%30.25 "Hg10 mi
4:35 AM52 °FOvercast.3 mph80%30.24 "Hg10 mi
4:15 AM51 °FOvercast.3 mph83%30.24 "Hg10 mi
3:55 AM52 °FPassing clouds.5 mph80%30.24 "Hg10 mi
3:35 AM52 °FClear.3 mph79%30.23 "Hg10 mi
3:15 AM52 °FClear.No wind79%30.23 "Hg10 mi
2:55 AM53 °FClear.3 mph78%30.22 "Hg10 mi
2:35 AM53 °FClear.3 mph79%30.21 "Hg10 mi
2:15 AM54 °FClear.3 mph79%30.21 "Hg10 mi
1:55 AM54 °FClear.3 mph78%30.21 "Hg10 mi
1:35 AM55 °FClear.3 mph75%30.20 "Hg10 mi
1:15 AM56 °FClear.3 mph75%30.19 "Hg10 mi
12:55 AM56 °FClear.5 mph73%30.18 "Hg10 mi
12:35 AM57 °FClear.6 mph73%30.19 "Hg10 mi
12:15 AM58 °FClear.5 mph74%30.19 "Hg10 mi
Weather by CustomWeather, © 2015

See weather overviewHow to use our weather pages